Location: Goettingen
(51.5300°N, 9.9433°E)
Time: 19:56:19
(UTC+01:00)

ISS - Pass Details

Date: 15 December 2017
Orbit: 402 x 407 km, 51.6° (Epoch: 11 December)

Event Time Altitude Azimuth Distance (km) Brightness Sun altitude
Rises 17:53:21 0° 282° (WNW) 2,331 1.1 -14.7°
Reaches altitude 10° 17:55:48 10° 264° (W) 1,467 0.3 -15.1°
Maximum altitude 17:58:15 19° 216° (SW) 1,025 -1.1 -15.5°
Drops below altitude 10° 18:00:41 10° 168° (SSE) 1,459 -0.9 -15.8°
Sets 18:03:07 0° 150° (SSE) 2,314 -0.1 -16.2°
